owner,sensor,date,latitude,longitude,vertical_datum,direction_of_sea_water_velocity,sea_water_speed,upward_sea_water_velocity,qcFlag 
TABS,ioos:station:wmo:42045:1,2014-09-01T00:00:00Z,26.2168,-96.4998,2.0,46.3338162,25.21518788,-99999.0,'11111222,11111222,99999999' 
TABS,ioos:station:wmo:42045:1,2014-09-01T00:30:00Z,26.2168,-96.4998,2.0,50.3518051,21.45522081,-99999.0,'11111222,11111222,99999999' 
TABS,ioos:station:wmo:42045:1,2014-09-01T01:00:00Z,26.2168,-96.4998,2.0,51.82541573,20.28926071,-99999.0,'11111222,11111222,99999999' 
TABS,ioos:station:wmo:42045:1,2014-09-01T01:30:00Z,26.2168,-96.4998,2.0,47.66214871,19.79206407,-99999.0,'11111222,11111222,99999999' 
TABS,ioos:station:wmo:42045:1,2014-09-01T02:00:00Z,26.2168,-96.4998,2.0,44.9760819,16.86449821,-99999.0,'11111222,11111222,99999999' 
TABS,ioos:station:wmo:42045:1,2014-09-01T02:30:00Z,26.2168,-96.4998,2.0,42.51267603,16.61852581,-99999.0,'11111222,11111222,99999999' 
TABS,ioos:station:wmo:42045:1,2014-09-01T03:00:00Z,26.2168,-96.4998,2.0,38.68599074,17.16662168,-99999.0,'11111222,11111222,99999999' 
TABS,ioos:station:wmo:42045:1,2014-09-01T03:30:00Z,26.2168,-96.4998,2.0,38.13786432,18.16844792,-99999.0,'11111222,11111222,99999999' 
TABS,ioos:station:wmo:42045:1,2014-09-01T04:00:00Z,26.2168,-96.4998,2.0,28.48204541,18.85165775,-99999.0,'11111222,11111222,99999999' 
TABS,ioos:station:wmo:42045:1,2014-09-01T04:30:00Z,26.2168,-96.4998,2.0,22.71330076,19.37233336,-99999.0,'11111222,11111222,99999999' 
TABS,ioos:station:wmo:42045:1,2014-09-01T05:00:00Z,26.2168,-96.4998,2.0,22.92804425,14.4517473,-99999.0,'11111222,11111222,99999999' 
TABS,ioos:station:wmo:42045:1,2014-09-01T05:30:00Z,26.2168,-96.4998,2.0,20.05224571,17.03248661,-99999.0,'11111222,11111222,99999999' 
TABS,ioos:station:wmo:42045:1,2014-09-01T06:00:00Z,26.2168,-96.4998,2.0,6.421768158,17.88219506,-99999.0,'11111222,11111222,99999999' 
TABS,ioos:station:wmo:42045:1,2014-09-01T06:30:00Z,26.2168,-96.4998,2.0,2.448971526,17.08560213,-99999.0,'11111222,11111222,99999999' 
TABS,ioos:station:wmo:42045:1,2014-09-01T07:00:00Z,26.2168,-96.4998,2.0,352.8788364,19.60120915,-99999.0,'11111222,11111222,99999999' 
TABS,ioos:station:wmo:42045:1,2014-09-01T07:30:00Z,26.2168,-96.4998,2.0,358.4315522,22.64848781,-99999.0,'11111222,11111222,99999999' 
TABS,ioos:station:wmo:42045:1,2014-09-01T08:00:00Z,26.2168,-96.4998,2.0,355.929464,21.97544084,-99999.0,'11111222,11111222,99999999' 
TABS,ioos:station:wmo:42045:1,2014-09-01T08:30:00Z,26.2168,-96.4998,2.0,356.7659306,23.92811317,-99999.0,'11111222,11111222,99999999' 
TABS,ioos:station:wmo:42045:1,2014-09-01T09:00:00Z,26.2168,-96.4998,2.0,353.9155308,25.75509658,-99999.0,'11111222,11111222,99999999' 
TABS,ioos:station:wmo:42045:1,2014-09-01T09:30:00Z,26.2168,-96.4998,2.0,353.7865795,25.49980588,-99999.0,'11111222,11111222,99999999' 
TABS,ioos:station:wmo:42045:1,2014-09-01T10:00:00Z,26.2168,-96.4998,2.0,349.5874983,25.17459235,-99999.0,'11111222,11111222,99999999' 
TABS,ioos:station:wmo:42045:1,2014-09-01T10:30:00Z,26.2168,-96.4998,2.0,354.7888317,27.52377336,-99999.0,'11111222,11111222,99999999' 
TABS,ioos:station:wmo:42045:1,2014-09-01T11:00:00Z,26.2168,-96.4998,2.0,359.8959229,27.4700455,-99999.0,'11111222,11144222,99999999' 
TABS,ioos:station:wmo:42045:1,2014-09-01T11:30:00Z,26.2168,-96.4998,2.0,2.069979412,26.85752222,-99999.0,'11111222,11111222,99999999' 
TABS,ioos:station:wmo:42045:1,2014-09-01T12:00:00Z,26.2168,-96.4998,2.0,5.836433552,25.86406387,-99999.0,'11111222,11111222,99999999' 
TABS,ioos:station:wmo:42045:1,2014-09-01T12:30:00Z,26.2168,-96.4998,2.0,6.265485033,27.03145205,-99999.0,'11111222,11111222,99999999' 
TABS,ioos:station:wmo:42045:1,2014-09-01T13:00:00Z,26.2168,-96.4998,2.0,9.957688059,30.24561125,-99999.0,'11111222,11111222,99999999' 
TABS,ioos:station:wmo:42045:1,2014-09-01T13:30:00Z,26.2168,-96.4998,2.0,10.02105308,28.3322237,-99999.0,'11111222,11111222,99999999' 
TABS,ioos:station:wmo:42045:1,2014-09-01T14:00:00Z,26.2168,-96.4998,2.0,15.84405615,27.91033679,-99999.0,'11111222,11111222,99999999' 
TABS,ioos:station:wmo:42045:1,2014-09-01T14:30:00Z,26.2168,-96.4998,2.0,17.21753869,29.76375312,-99999.0,'11111222,11111222,99999999' 
TABS,ioos:station:wmo:42045:1,2014-09-01T15:00:00Z,26.2168,-96.4998,2.0,15.34232666,27.13708348,-99999.0,'11111222,11111222,99999999' 
TABS,ioos:station:wmo:42045:1,2014-09-01T15:30:00Z,26.2168,-96.4998,2.0,15.83166704,27.63837369,-99999.0,'11111222,11111222,99999999' 
TABS,ioos:station:wmo:42045:1,2014-09-01T16:00:00Z,26.2168,-96.4998,2.0,23.72474428,30.32255926,-99999.0,'11111222,11111222,99999999' 
TABS,ioos:station:wmo:42045:1,2014-09-01T16:30:00Z,26.2168,-96.4998,2.0,21.43861498,28.72764522,-99999.0,'11111222,11111222,99999999' 
TABS,ioos:station:wmo:42045:1,2014-09-01T17:00:00Z,26.2168,-96.4998,2.0,18.12666346,23.4960635,-99999.0,'11111222,11111222,99999999' 
TABS,ioos:station:wmo:42045:1,2014-09-01T17:30:00Z,26.2168,-96.4998,2.0,21.42797613,26.77040904,-99999.0,'11111222,11111222,99999999' 
TABS,ioos:station:wmo:42045:1,2014-09-01T18:00:00Z,26.2168,-96.4998,2.0,25.5432633,29.33740616,-99999.0,'11111222,11111222,99999999' 
TABS,ioos:station:wmo:42045:1,2014-09-01T18:30:00Z,26.2168,-96.4998,2.0,27.78208088,27.37564611,-99999.0,'11111222,11111222,99999999' 
TABS,ioos:station:wmo:42045:1,2014-09-01T19:00:00Z,26.2168,-96.4998,2.0,30.50617349,27.26400007,-99999.0,'11111222,11111222,99999999' 
TABS,ioos:station:wmo:42045:1,2014-09-01T19:30:00Z,26.2168,-96.4998,2.0,30.75121167,28.18255666,-99999.0,'11111222,11111222,99999999' 
TABS,ioos:station:wmo:42045:1,2014-09-01T20:00:00Z,26.2168,-96.4998,2.0,29.01292753,31.93783023,-99999.0,'11111222,11111222,99999999' 
TABS,ioos:station:wmo:42045:1,2014-09-01T20:30:00Z,26.2168,-96.4998,2.0,35.4400311,34.06060775,-99999.0,'11111222,11111222,99999999' 
TABS,ioos:station:wmo:42045:1,2014-09-01T21:00:00Z,26.2168,-96.4998,2.0,31.64639253,31.96274394,-99999.0,'11111222,11111222,99999999' 
TABS,ioos:station:wmo:42045:1,2014-09-01T21:30:00Z,26.2168,-96.4998,2.0,26.6911451,26.44827594,-99999.0,'11111222,11111222,99999999' 
TABS,ioos:station:wmo:42045:1,2014-09-01T22:00:00Z,26.2168,-96.4998,2.0,27.78684074,25.59090659,-99999.0,'11111222,11111222,99999999' 
TABS,ioos:station:wmo:42045:1,2014-09-01T22:30:00Z,26.2168,-96.4998,2.0,32.13433967,24.51569293,-99999.0,'11111222,11111222,99999999' 
TABS,ioos:station:wmo:42045:1,2014-09-01T23:00:00Z,26.2168,-96.4998,2.0,30.22088333,21.95366484,-99999.0,'11111222,11111222,99999999' 
TABS,ioos:station:wmo:42045:1,2014-09-01T23:30:00Z,26.2168,-96.4998,2.0,27.47765891,13.19894693,-99999.0,'11111222,11111222,99999999' 
TABS,ioos:station:wmo:42045:1,2014-09-02T00:00:00Z,26.2168,-96.4998,2.0,31.24866185,20.70356491,-99999.0,'11111222,11111222,99999999' 
TABS,ioos:station:wmo:42045:1,2014-09-02T00:30:00Z,26.2168,-96.4998,2.0,30.89730155,19.1821297,-99999.0,'11111222,11111222,99999999' 
TABS,ioos:station:wmo:42045:1,2014-09-02T01:00:00Z,26.2168,-96.4998,2.0,30.39193072,16.14911143,-99999.0,'11111222,11111222,99999999' 
TABS,ioos:station:wmo:42045:1,2014-09-02T01:30:00Z,26.2168,-96.4998,2.0,41.75763759,16.50200594,-99999.0,'11111222,11111222,99999999' 
TABS,ioos:station:wmo:42045:1,2014-09-02T02:00:00Z,26.2168,-96.4998,2.0,42.85688195,16.26068879,-99999.0,'11111222,11111222,99999999' 
TABS,ioos:station:wmo:42045:1,2014-09-02T02:30:00Z,26.2168,-96.4998,2.0,46.18003337,19.91635007,-99999.0,'11111222,11111222,99999999' 
TABS,ioos:station:wmo:42045:1,2014-09-02T03:00:00Z,26.2168,-96.4998,2.0,51.93990071,14.92322016,-99999.0,'11111222,11111222,99999999' 
TABS,ioos:station:wmo:42045:1,2014-09-02T03:30:00Z,26.2168,-96.4998,2.0,42.88842813,15.92779018,-99999.0,'11111222,11111222,99999999' 
TABS,ioos:station:wmo:42045:1,2014-09-02T04:00:00Z,26.2168,-96.4998,2.0,29.79117718,12.31789349,-99999.0,'11111222,11111222,99999999' 
TABS,ioos:station:wmo:42045:1,2014-09-02T04:30:00Z,26.2168,-96.4998,2.0,24.39770949,14.30765529,-99999.0,'11111222,11111222,99999999' 
TABS,ioos:station:wmo:42045:1,2014-09-02T05:00:00Z,26.2168,-96.4998,2.0,11.78593651,12.04390717,-99999.0,'11111222,11111222,99999999' 
TABS,ioos:station:wmo:42045:1,2014-09-02T05:30:00Z,26.2168,-96.4998,2.0,9.254134513,11.75296133,-99999.0,'11111222,11111222,99999999' 
TABS,ioos:station:wmo:42045:1,2014-09-02T06:00:00Z,26.2168,-96.4998,2.0,0.616778869,12.08069948,-99999.0,'11111222,11111222,99999999' 
TABS,ioos:station:wmo:42045:1,2014-09-02T06:30:00Z,26.2168,-96.4998,2.0,343.9822422,11.92290652,-99999.0,'11111222,11111222,99999999' 
TABS,ioos:station:wmo:42045:1,2014-09-02T07:00:00Z,26.2168,-96.4998,2.0,340.0362734,12.79913278,-99999.0,'11111222,11111222,99999999' 
TABS,ioos:station:wmo:42045:1,2014-09-02T07:30:00Z,26.2168,-96.4998,2.0,346.1528513,13.24494243,-99999.0,'11111222,11111222,99999999' 
TABS,ioos:station:wmo:42045:1,2014-09-02T08:00:00Z,26.2168,-96.4998,2.0,343.3252318,15.85681557,-99999.0,'11111222,11111222,99999999' 
TABS,ioos:station:wmo:42045:1,2014-09-02T08:30:00Z,26.2168,-96.4998,2.0,348.4551663,18.63707327,-99999.0,'11111222,11111222,99999999' 
TABS,ioos:station:wmo:42045:1,2014-09-02T09:00:00Z,26.2168,-96.4998,2.0,342.1759813,18.09874305,-99999.0,'11111222,11111222,99999999' 
TABS,ioos:station:wmo:42045:1,2014-09-02T09:30:00Z,26.2168,-96.4998,2.0,339.9281783,18.70618347,-99999.0,'11111222,11111222,99999999' 
TABS,ioos:station:wmo:42045:1,2014-09-02T10:00:00Z,26.2168,-96.4998,2.0,347.7650744,21.37552339,-99999.0,'11111222,11111222,99999999' 
TABS,ioos:station:wmo:42045:1,2014-09-02T10:30:00Z,26.2168,-96.4998,2.0,338.3647309,23.73196368,-99999.0,'11111222,11111222,99999999' 
TABS,ioos:station:wmo:42045:1,2014-09-02T11:00:00Z,26.2168,-96.4998,2.0,343.3143588,24.65828056,-99999.0,'11111222,11111222,99999999' 
TABS,ioos:station:wmo:42045:1,2014-09-02T11:30:00Z,26.2168,-96.4998,2.0,343.9377137,26.20295594,-99999.0,'11111222,11111222,99999999' 
TABS,ioos:station:wmo:42045:1,2014-09-02T12:00:00Z,26.2168,-96.4998,2.0,353.6950278,25.31311913,-99999.0,'11111222,11111222,99999999' 
TABS,ioos:station:wmo:42045:1,2014-09-02T12:30:00Z,26.2168,-96.4998,2.0,0.322221937,24.91039341,-99999.0,'11111222,11111222,99999999' 
TABS,ioos:station:wmo:42045:1,2014-09-02T13:00:00Z,26.2168,-96.4998,2.0,353.1371477,25.77468719,-99999.0,'11111222,11111222,99999999' 
TABS,ioos:station:wmo:42045:1,2014-09-02T13:30:00Z,26.2168,-96.4998,2.0,358.6805247,30.82817705,-99999.0,'11111222,11111222,99999999' 
TABS,ioos:station:wmo:42045:1,2014-09-02T14:00:00Z,26.2168,-96.4998,2.0,2.666513579,28.1604865,-99999.0,'11111222,11111222,99999999' 
TABS,ioos:station:wmo:42045:1,2014-09-02T14:30:00Z,26.2168,-96.4998,2.0,359.7425701,28.91029228,-99999.0,'11111222,11144222,99999999' 
TABS,ioos:station:wmo:42045:1,2014-09-02T15:00:00Z,26.2168,-96.4998,2.0,6.965101091,30.18273016,-99999.0,'11111222,11111222,99999999' 
TABS,ioos:station:wmo:42045:1,2014-09-02T15:30:00Z,26.2168,-96.4998,2.0,11.91881226,29.53675676,-99999.0,'11111222,11111222,99999999' 
TABS,ioos:station:wmo:42045:1,2014-09-02T16:00:00Z,26.2168,-96.4998,2.0,5.249055175,30.49788517,-99999.0,'11111222,11111222,99999999' 
TABS,ioos:station:wmo:42045:1,2014-09-02T16:30:00Z,26.2168,-96.4998,2.0,12.12213904,27.95327888,-99999.0,'11111222,11111222,99999999' 
TABS,ioos:station:wmo:42045:1,2014-09-02T17:00:00Z,26.2168,-96.4998,2.0,8.611207422,29.65427457,-99999.0,'11111222,11111222,99999999' 
TABS,ioos:station:wmo:42045:1,2014-09-02T17:30:00Z,26.2168,-96.4998,2.0,19.0374527,30.38168034,-99999.0,'11111222,11111222,99999999' 
TABS,ioos:station:wmo:42045:1,2014-09-02T18:00:00Z,26.2168,-96.4998,2.0,16.86201601,33.75106072,-99999.0,'11111222,11111222,99999999' 
TABS,ioos:station:wmo:42045:1,2014-09-02T18:30:00Z,26.2168,-96.4998,2.0,20.42196798,32.47081459,-99999.0,'11111222,11111222,99999999' 
TABS,ioos:station:wmo:42045:1,2014-09-02T19:00:00Z,26.2168,-96.4998,2.0,20.07814914,30.43995072,-99999.0,'11111222,11111222,99999999' 
TABS,ioos:station:wmo:42045:1,2014-09-02T19:30:00Z,26.2168,-96.4998,2.0,22.55740434,29.56155612,-99999.0,'11111222,11111222,99999999' 
TABS,ioos:station:wmo:42045:1,2014-09-02T20:00:00Z,26.2168,-96.4998,2.0,26.30245034,32.18182872,-99999.0,'11111222,11111222,99999999' 
TABS,ioos:station:wmo:42045:1,2014-09-02T20:30:00Z,26.2168,-96.4998,2.0,18.79000552,27.5692655,-99999.0,'11111222,11111222,99999999' 
TABS,ioos:station:wmo:42045:1,2014-09-02T21:00:00Z,26.2168,-96.4998,2.0,23.45848096,28.38611632,-99999.0,'11111222,11111222,99999999' 
TABS,ioos:station:wmo:42045:1,2014-09-02T21:30:00Z,26.2168,-96.4998,2.0,21.03183711,28.19852478,-99999.0,'11111222,11111222,99999999' 
TABS,ioos:station:wmo:42045:1,2014-09-02T22:00:00Z,26.2168,-96.4998,2.0,20.24609247,25.51651426,-99999.0,'11111222,11111222,99999999' 
TABS,ioos:station:wmo:42045:1,2014-09-02T22:30:00Z,26.2168,-96.4998,2.0,21.44649971,27.26802706,-99999.0,'11111222,11111222,99999999' 
TABS,ioos:station:wmo:42045:1,2014-09-02T23:00:00Z,26.2168,-96.4998,2.0,21.96220196,23.18229713,-99999.0,'11111222,11111222,99999999' 
TABS,ioos:station:wmo:42045:1,2014-09-02T23:30:00Z,26.2168,-96.4998,2.0,29.97688164,27.27918254,-99999.0,'11111222,11111222,99999999' 
TABS,ioos:station:wmo:42045:1,2014-09-03T00:00:00Z,26.2168,-96.4998,2.0,32.4195492,23.76365292,-99999.0,'11111222,11111222,99999999' 
TABS,ioos:station:wmo:42045:1,2014-09-03T00:30:00Z,26.2168,-96.4998,2.0,37.05707511,22.05411753,-99999.0,'11111222,11111222,99999999' 
TABS,ioos:station:wmo:42045:1,2014-09-03T01:00:00Z,26.2168,-96.4998,2.0,32.06030579,21.0621675,-99999.0,'11111222,11111222,99999999' 
TABS,ioos:station:wmo:42045:1,2014-09-03T01:30:00Z,26.2168,-96.4998,2.0,39.0765583,22.33656196,-99999.0,'11111222,11111222,99999999' 
TABS,ioos:station:wmo:42045:1,2014-09-03T02:00:00Z,26.2168,-96.4998,2.0,37.93339204,17.24296958,-99999.0,'11111222,11111222,99999999' 
TABS,ioos:station:wmo:42045:1,2014-09-03T02:30:00Z,26.2168,-96.4998,2.0,39.34319669,25.53778769,-99999.0,'11111222,11111222,99999999' 
TABS,ioos:station:wmo:42045:1,2014-09-03T03:00:00Z,26.2168,-96.4998,2.0,29.49641238,19.15238366,-99999.0,'11111222,11111222,99999999' 
TABS,ioos:station:wmo:42045:1,2014-09-03T03:30:00Z,26.2168,-96.4998,2.0,39.57242095,18.24028509,-99999.0,'11111222,11111222,99999999' 
TABS,ioos:station:wmo:42045:1,2014-09-03T04:00:00Z,26.2168,-96.4998,2.0,42.00774083,20.85980824,-99999.0,'11111222,11111222,99999999' 
TABS,ioos:station:wmo:42045:1,2014-09-03T04:30:00Z,26.2168,-96.4998,2.0,45.92941386,16.13122748,-99999.0,'11111222,11111222,99999999' 
TABS,ioos:station:wmo:42045:1,2014-09-03T05:00:00Z,26.2168,-96.4998,2.0,30.80371244,17.78961776,-99999.0,'11111222,11111222,99999999' 
TABS,ioos:station:wmo:42045:1,2014-09-03T05:30:00Z,26.2168,-96.4998,2.0,49.94628664,17.14045799,-99999.0,'11111222,11111222,99999999' 
TABS,ioos:station:wmo:42045:1,2014-09-03T06:00:00Z,26.2168,-96.4998,2.0,16.88696209,14.04563989,-99999.0,'11111222,11111222,99999999' 
TABS,ioos:station:wmo:42045:1,2014-09-03T06:30:00Z,26.2168,-96.4998,2.0,27.20745082,11.57014261,-99999.0,'11111222,11111222,99999999' 
TABS,ioos:station:wmo:42045:1,2014-09-03T07:00:00Z,26.2168,-96.4998,2.0,25.12375506,18.48918873,-99999.0,'11111222,11111222,99999999' 
TABS,ioos:station:wmo:42045:1,2014-09-03T07:30:00Z,26.2168,-96.4998,2.0,17.54362648,17.68243479,-99999.0,'11111222,11111222,99999999' 
TABS,ioos:station:wmo:42045:1,2014-09-03T08:00:00Z,26.2168,-96.4998,2.0,35.73819969,15.28898296,-99999.0,'11111222,11111222,99999999' 
TABS,ioos:station:wmo:42045:1,2014-09-03T08:30:00Z,26.2168,-96.4998,2.0,11.57473517,10.61587961,-99999.0,'11111222,11111222,99999999' 
TABS,ioos:station:wmo:42045:1,2014-09-03T09:00:00Z,26.2168,-96.4998,2.0,10.29923397,17.67477581,-99999.0,'11111222,11111222,99999999' 
TABS,ioos:station:wmo:42045:1,2014-09-03T09:30:00Z,26.2168,-96.4998,2.0,3.536455578,14.2671651,-99999.0,'11111222,11111222,99999999' 
TABS,ioos:station:wmo:42045:1,2014-09-03T10:00:00Z,26.2168,-96.4998,2.0,343.5496647,15.89048772,-99999.0,'11111222,11111222,99999999' 
TABS,ioos:station:wmo:42045:1,2014-09-03T10:30:00Z,26.2168,-96.4998,2.0,345.7461812,15.31138465,-99999.0,'11111222,11111222,99999999' 
TABS,ioos:station:wmo:42045:1,2014-09-03T11:00:00Z,26.2168,-96.4998,2.0,351.7697455,14.52965244,-99999.0,'11111222,11111222,99999999' 
TABS,ioos:station:wmo:42045:1,2014-09-03T11:30:00Z,26.2168,-96.4998,2.0,340.0436703,14.76671934,-99999.0,'11111222,11111222,99999999' 
TABS,ioos:station:wmo:42045:1,2014-09-03T12:00:00Z,26.2168,-96.4998,2.0,345.9865838,18.45938786,-99999.0,'11111222,11111222,99999999' 
TABS,ioos:station:wmo:42045:1,2014-09-03T12:30:00Z,26.2168,-96.4998,2.0,353.8123272,9.555673707,-99999.0,'11133222,11111222,99999999' 
TABS,ioos:station:wmo:42045:1,2014-09-03T13:00:00Z,26.2168,-96.4998,2.0,346.6989902,15.1257661,-99999.0,'11111222,11111222,99999999' 
TABS,ioos:station:wmo:42045:1,2014-09-03T13:30:00Z,26.2168,-96.4998,2.0,352.426378,14.56708619,-99999.0,'11111222,11111222,99999999' 
TABS,ioos:station:wmo:42045:1,2014-09-03T14:00:00Z,26.2168,-96.4998,2.0,343.9344993,20.27171675,-99999.0,'11111222,11111222,99999999' 
TABS,ioos:station:wmo:42045:1,2014-09-03T14:30:00Z,26.2168,-96.4998,2.0,346.6286845,20.27976824,-99999.0,'11111222,11111222,99999999' 
TABS,ioos:station:wmo:42045:1,2014-09-03T15:00:00Z,26.2168,-96.4998,2.0,344.9288222,14.49872063,-99999.0,'11111222,11111222,99999999' 
TABS,ioos:station:wmo:42045:1,2014-09-03T15:30:00Z,26.2168,-96.4998,2.0,346.7310351,18.29852726,-99999.0,'11111222,11111222,99999999' 
TABS,ioos:station:wmo:42045:1,2014-09-03T16:00:00Z,26.2168,-96.4998,2.0,354.669544,20.55891534,-99999.0,'11111222,11111222,99999999' 
TABS,ioos:station:wmo:42045:1,2014-09-03T16:30:00Z,26.2168,-96.4998,2.0,353.0778707,18.58548089,-99999.0,'11111222,11111222,99999999' 
TABS,ioos:station:wmo:42045:1,2014-09-03T17:00:00Z,26.2168,-96.4998,2.0,356.5490608,18.27313876,-99999.0,'11111222,11111222,99999999' 
TABS,ioos:station:wmo:42045:1,2014-09-03T17:30:00Z,26.2168,-96.4998,2.0,3.768567122,20.84506896,-99999.0,'11111222,11111222,99999999' 
TABS,ioos:station:wmo:42045:1,2014-09-03T18:00:00Z,26.2168,-96.4998,2.0,12.39558831,13.97578263,-99999.0,'11111222,11111222,99999999' 
TABS,ioos:station:wmo:42045:1,2014-09-03T18:30:00Z,26.2168,-96.4998,2.0,357.9708988,22.87434589,-99999.0,'11111222,11111222,99999999' 
TABS,ioos:station:wmo:42045:1,2014-09-03T19:00:00Z,26.2168,-96.4998,2.0,358.5307157,21.05692523,-99999.0,'11111222,11111222,99999999' 
TABS,ioos:station:wmo:42045:1,2014-09-03T19:30:00Z,26.2168,-96.4998,2.0,7.966834563,26.76834324,-99999.0,'11111222,11111222,99999999' 
TABS,ioos:station:wmo:42045:1,2014-09-03T20:00:00Z,26.2168,-96.4998,2.0,12.04561538,23.52803009,-99999.0,'11111222,11111222,99999999' 
TABS,ioos:station:wmo:42045:1,2014-09-03T20:30:00Z,26.2168,-96.4998,2.0,14.52119554,18.34605135,-99999.0,'11111222,11111222,99999999' 
TABS,ioos:station:wmo:42045:1,2014-09-03T21:00:00Z,26.2168,-96.4998,2.0,14.29202337,10.32969506,-99999.0,'11111222,11111222,99999999' 
TABS,ioos:station:wmo:42045:1,2014-09-03T21:30:00Z,26.2168,-96.4998,2.0,26.07821943,12.10203702,-99999.0,'11111222,11111222,99999999' 
TABS,ioos:station:wmo:42045:1,2014-09-03T22:00:00Z,26.2168,-96.4998,2.0,38.0928351,15.46352159,-99999.0,'11111222,11111222,99999999' 
TABS,ioos:station:wmo:42045:1,2014-09-03T22:30:00Z,26.2168,-96.4998,2.0,25.55528473,13.95523199,-99999.0,'11111222,11111222,99999999' 
TABS,ioos:station:wmo:42045:1,2014-09-03T23:00:00Z,26.2168,-96.4998,2.0,42.86464678,18.78673202,-99999.0,'11111222,11111222,99999999' 
TABS,ioos:station:wmo:42045:1,2014-09-03T23:30:00Z,26.2168,-96.4998,2.0,43.13724841,13.7039009,-99999.0,'11111222,11111222,99999999' 
TABS,ioos:station:wmo:42045:1,2014-09-04T00:00:00Z,26.2168,-96.4998,2.0,29.92493036,13.43054727,-99999.0,'11111222,11111222,99999999' 
TABS,ioos:station:wmo:42045:1,2014-09-04T00:30:00Z,26.2168,-96.4998,2.0,47.11892411,13.19656395,-99999.0,'11111222,11111222,99999999' 
TABS,ioos:station:wmo:42045:1,2014-09-04T01:00:00Z,26.2168,-96.4998,2.0,37.91383546,14.27236841,-99999.0,'11111222,11111222,99999999' 
TABS,ioos:station:wmo:42045:1,2014-09-04T01:30:00Z,26.2168,-96.4998,2.0,40.82587775,11.07438486,-99999.0,'11111222,11111222,99999999' 
TABS,ioos:station:wmo:42045:1,2014-09-04T02:00:00Z,26.2168,-96.4998,2.0,25.03346535,10.5401186,-99999.0,'11111222,11111222,99999999' 
TABS,ioos:station:wmo:42045:1,2014-09-04T02:30:00Z,26.2168,-96.4998,2.0,55.6480112,7.921647556,-99999.0,'11133222,11111222,99999999' 
TABS,ioos:station:wmo:42045:1,2014-09-04T03:00:00Z,26.2168,-96.4998,2.0,55.88043621,8.878226174,-99999.0,'11133222,11111222,99999999' 
TABS,ioos:station:wmo:42045:1,2014-09-04T03:30:00Z,26.2168,-96.4998,2.0,29.21495263,7.642107039,-99999.0,'11133222,11111222,99999999' 
TABS,ioos:station:wmo:42045:1,2014-09-04T04:00:00Z,26.2168,-96.4998,2.0,33.83213693,6.717439989,-99999.0,'11133222,11111222,99999999' 
TABS,ioos:station:wmo:42045:1,2014-09-04T04:30:00Z,26.2168,-96.4998,2.0,29.24570108,6.120106208,-99999.0,'11133222,11111222,99999999' 
TABS,ioos:station:wmo:42045:1,2014-09-04T05:00:00Z,26.2168,-96.4998,2.0,21.6517376,7.101014012,-99999.0,'11133222,11111222,99999999' 
TABS,ioos:station:wmo:42045:1,2014-09-04T05:30:00Z,26.2168,-96.4998,2.0,41.71087024,4.313386141,-99999.0,'11133222,11111222,99999999' 
TABS,ioos:station:wmo:42045:1,2014-09-04T06:00:00Z,26.2168,-96.4998,2.0,7.903967603,4.654213145,-99999.0,'11133222,11111222,99999999' 
TABS,ioos:station:wmo:42045:1,2014-09-04T06:30:00Z,26.2168,-96.4998,2.0,25.52199501,5.895252327,-99999.0,'11133222,11111222,99999999' 
TABS,ioos:station:wmo:42045:1,2014-09-04T07:00:00Z,26.2168,-96.4998,2.0,27.79528509,5.833009515,-99999.0,'11133222,11111222,99999999' 
TABS,ioos:station:wmo:42045:1,2014-09-04T07:30:00Z,26.2168,-96.4998,2.0,11.40399239,7.181782509,-99999.0,'11133222,11111222,99999999' 
TABS,ioos:station:wmo:42045:1,2014-09-04T08:00:00Z,26.2168,-96.4998,2.0,5.739295536,6.000075,-99999.0,'11133222,11111222,99999999' 
TABS,ioos:station:wmo:42045:1,2014-09-04T08:30:00Z,26.2168,-96.4998,2.0,6.290154492,6.297912353,-99999.0,'11133222,11111222,99999999' 
TABS,ioos:station:wmo:42045:1,2014-09-04T09:00:00Z,26.2168,-96.4998,2.0,28.81742448,7.738300847,-99999.0,'11133222,11111222,99999999' 
TABS,ioos:station:wmo:42045:1,2014-09-04T09:30:00Z,26.2168,-96.4998,2.0,24.09458478,5.290982895,-99999.0,'11133222,11111222,99999999' 
TABS,ioos:station:wmo:42045:1,2014-09-04T10:00:00Z,26.2168,-96.4998,2.0,355.6398549,8.023222545,-99999.0,'11133222,11111222,99999999' 
TABS,ioos:station:wmo:42045:1,2014-09-04T10:30:00Z,26.2168,-96.4998,2.0,4.888599976,9.153294489,-99999.0,'11133222,11111222,99999999' 
TABS,ioos:station:wmo:42045:1,2014-09-04T11:00:00Z,26.2168,-96.4998,2.0,12.56689953,9.835629111,-99999.0,'11133222,11111222,99999999' 
TABS,ioos:station:wmo:42045:1,2014-09-04T11:30:00Z,26.2168,-96.4998,2.0,344.3484993,6.968392928,-99999.0,'11133222,11111222,99999999' 
TABS,ioos:station:wmo:42045:1,2014-09-04T12:00:00Z,26.2168,-96.4998,2.0,346.8548636,6.551679174,-99999.0,'11133222,11111222,99999999' 
TABS,ioos:station:wmo:42045:1,2014-09-04T12:30:00Z,26.2168,-96.4998,2.0,346.9668846,6.651345728,-99999.0,'11133222,11111222,99999999' 
TABS,ioos:station:wmo:42045:1,2014-09-04T13:00:00Z,26.2168,-96.4998,2.0,340.6215326,10.3673526,-99999.0,'11111222,11111222,99999999' 
TABS,ioos:station:wmo:42045:1,2014-09-04T13:30:00Z,26.2168,-96.4998,2.0,343.0533428,13.51697081,-99999.0,'11111222,11111222,99999999' 
TABS,ioos:station:wmo:42045:1,2014-09-04T14:00:00Z,26.2168,-96.4998,2.0,340.2829117,10.31477096,-99999.0,'11111222,11111222,99999999' 
TABS,ioos:station:wmo:42045:1,2014-09-04T14:30:00Z,26.2168,-96.4998,2.0,350.8421979,12.6917808,-99999.0,'11111222,11111222,99999999' 
TABS,ioos:station:wmo:42045:1,2014-09-04T15:00:00Z,26.2168,-96.4998,2.0,347.661152,14.74050542,-99999.0,'11111222,11111222,99999999' 
TABS,ioos:station:wmo:42045:1,2014-09-04T15:30:00Z,26.2168,-96.4998,2.0,358.8267988,13.67286729,-99999.0,'11111222,11111222,99999999' 
TABS,ioos:station:wmo:42045:1,2014-09-04T16:00:00Z,26.2168,-96.4998,2.0,358.3735206,16.55667237,-99999.0,'11111222,11111222,99999999' 